KN4IED-WX Weather Reports


time (UTC)temp
C
wind
direction
speed
KPH
gust
KPH
rain 1hr
cm
rain 24hr
cm
rain mn
cm
humidity
%
barometer
mb
20260507213517 22 150 3.2 17.7 0.00 9.83 4.67 64 1010.9
20260507212533 22 200 4.8 17.7 0.00 9.83 4.67 64 1010.7
20260507211529 22 222 6.4 25.7 0.00 9.83 4.67 63 1010.8
20260507210526 23 223 8.0 20.9 0.00 9.83 4.67 62 1010.8
20260507205522 23 202 8.0 20.9 0.00 9.83 4.67 62 1010.7
20260507204518 23 280 3.2 9.7 0.00 9.83 4.67 63 1010.6
20260507203534 23 265 4.8 20.9 0.00 9.83 4.67 62 1010.6
20260507202530 23 220 8.0 27.4 0.00 9.83 4.67 62 1010.6
20260507201526 23 218 6.4 17.7 0.00 9.83 4.67 64 1010.5
20260507200523 23 187 3.2 11.3 0.00 9.83 4.67 64 1010.7
20260507195519 22 219 3.2 11.3 0.00 9.83 4.67 65 1010.8
20260507194555 23 225 11.3 29.0 0.00 9.83 4.67 63 1010.7
20260507193532 23 188 6.4 19.3 0.00 9.83 4.67 65 1010.8
20260507192548 22 241 4.8 12.9 0.00 9.83 4.67 67 1010.8
20260507191524 22 203 8.0 17.7 0.00 9.83 4.67 67 1011.0
20260507190541 22 285 3.2 11.3 0.00 9.83 4.67 69 1011.1
20260507185537 22 240 3.2 17.7 0.00 9.83 4.67 71 1011.1
20260507184533 22 257 3.2 14.5 0.00 9.83 4.67 71 1011.1
20260507183529 21 204 3.2 14.5 0.00 9.83 4.67 74 1011.1
20260507182526 22 219 3.2 12.9 0.00 9.83 4.67 73 1011.1
20260507181522 22 222 4.8 19.3 0.00 9.83 4.67 75 1011.1
20260507180559 22 212 6.4 20.9 0.00 9.83 4.67 74 1011.1
20260507175535 22 220 6.4 19.3 0.00 9.83 4.67 74 1011.1
20260507174531 22 231 4.8 8.0 0.00 9.83 4.67 77 1011.2
20260507173528 22 220 6.4 19.3 0.00 9.83 4.67 76 1011.1
20260507172524 22 219 6.4 12.9 0.00 9.83 4.67 77 1011.0
20260507171521 22 213 4.8 11.3 0.00 9.83 4.67 80 1011.1
20260507170517 21 198 4.8 8.0 0.00 9.83 4.67 84 1011.1
20260507165554 21 359 1.6 4.8 0.00 9.83 4.67 85 1011.1
20260507164550 20 178 4.8 9.7 0.00 9.83 4.67 85 1011.3
20260507163526 21 204 6.4 14.5 0.00 9.83 4.67 83 1011.3
20260507162523 20 34 1.6 6.4 0.00 9.83 4.67 86 1011.2
20260507161520 20 194 3.2 6.4 0.00 9.83 4.67 89 1011.1
20260507160516 19 256 1.6 4.8 0.00 9.83 4.67 90 1011.1
20260507155552 19 160 3.2 6.4 0.00 9.83 4.67 92 1011.1
20260507154529 18 179 3.2 8.0 0.00 9.83 4.67 93 1010.9
20260507153525 18 204 1.6 3.2 0.00 9.83 4.65 97 1011.4
20260507152522 17 115 0.0 3.2 0.05 9.83 4.65 98 1011.4
20260507151518 17 194 1.6 4.8 0.13 9.83 4.65 99 1011.6
20260507150554 17 189 1.6 4.8 0.23 9.83 4.65 99 1011.6
20260507145551 17 208 3.2 6.4 0.25 9.83 4.65 99 1011.6
20260507144527 17 201 3.2 6.4 0.25 9.83 4.65 99 1011.5
20260507143524 17 58 1.6 4.8 0.28 9.83 4.65 99 1011.5
20260507142520 17 137 1.6 4.8 0.30 9.78 4.62 99 1011.6
20260507141517 17 256 0.0 3.2 0.33 9.70 4.52 99 1011.8
20260507140553 17 61 1.6 3.2 0.33 9.60 4.42 99 1011.5
20260507135530 17 81 3.2 8.0 0.38 9.58 4.42 99 1010.5
20260507134526 17 65 1.6 6.4 0.43 9.58 4.39 99 1010.8
20260507133543 17 66 1.6 6.4 0.66 9.53 4.37 99 1011.0
20260507132519 17 272 1.6 4.8 0.97 9.50 4.32 99 1011.3
20260507131516 17 17 1.6 3.2 0.89 9.37 4.19 99 1011.2
20260507130532 17 114 3.2 6.4 0.81 9.27 4.09 99 1010.9
20260507125528 16 102 3.2 4.8 0.84 9.22 4.04 99 1011.6
20260507124525 16 85 0.0 4.8 0.91 9.14 3.96 99 1011.6
20260507123521 16 81 1.6 3.2 0.74 8.89 3.71 99 1012.1
20260507122518 16 18 0.0 3.2 0.48 8.51 3.35 99 1011.0
20260507121534 16 73 1.6 4.8 0.76 8.48 3.30 99 1010.5
20260507120531 16 82 1.6 4.8 0.91 8.46 3.30 99 1010.4
20260507115527 16 57 1.6 6.4 0.89 8.38 3.20 99 1010.4
20260507114523 17 57 1.6 3.2 0.84 8.23 3.05 99 1010.1
20260507113539 17 71 4.8 9.7 0.89 8.13 2.97 99 1010.3
20260507112516 17 62 6.4 17.7 0.94 8.05 2.87 99 1010.4
20260507111532 17 61 3.2 8.0 0.66 7.72 2.57 99 1010.8
20260507110528 17 23 3.2 4.8 0.51 7.54 2.36 99 1009.7
20260507105524 17 28 1.6 4.8 0.56 7.49 2.34 99 1009.6
20260507104520 17 66 3.2 4.8 0.48 7.39 2.24 99 1009.6
20260507103517 17 55 1.6 3.2 0.33 7.24 2.08 99 1010.0
20260507102533 17 42 1.6 6.4 0.18 7.11 1.93 99 1009.8
20260507101529 17 66 3.2 6.4 0.15 7.09 1.91 99 1010.0
20260507100546 17 69 1.6 3.2 0.13 7.04 1.88 99 1010.5
20260507095523 17 17 0.0 3.2 0.00 6.93 1.75 99 1010.6
20260507094519 17 4 1.6 3.2 0.00 6.93 1.75 99 1010.5
20260507093535 17 104 1.6 3.2 0.03 6.91 1.75 99 1010.5
20260507092532 17 99 0.0 3.2 0.03 6.91 1.75 99 1011.0
20260507091529 17 345 1.6 3.2 0.13 6.91 1.75 99 1011.1
20260507090545 17 99 1.6 3.2 0.15 6.91 1.75 99 1010.9
20260507085602 17 60 1.6 4.8 0.15 6.91 1.75 99 1011.1
20260507084518 17 23 0.0 3.2 0.15 6.91 1.75 99 1011.0
20260507083534 17 59 1.6 4.8 0.15 6.91 1.73 99 1011.1
20260507082531 17 126 1.6 3.2 0.13 6.88 1.73 99 1011.2
20260507081528 17 71 1.6 4.8 0.05 6.78 1.63 99 1011.2
20260507080524 17 176 0.0 3.2 0.00 6.76 1.60 99 1011.6
20260507075520 17 120 1.6 3.2 0.03 6.76 1.60 99 1011.7
20260507074517 17 70 0.0 3.2 0.05 6.76 1.60 99 1011.7
20260507073533 17 43 0.0 3.2 0.08 6.76 1.60 99 1011.4
20260507072530 17 82 1.6 4.8 0.08 6.76 1.60 99 1011.3
20260507071606 17 36 1.6 3.2 0.10 6.76 1.57 99 1011.6
20260507070523 17 5 0.0 3.2 0.15 6.76 1.57 99 1011.7
20260507065519 17 105 1.6 3.2 0.23 6.73 1.55 99 1011.9
20260507064515 17 233 1.6 4.8 0.43 6.71 1.55 99 1012.2
20260507063533 17 104 1.6 4.8 0.64 6.68 1.52 99 1012.2
20260507062529 17 46 3.2 6.4 0.79 6.68 1.50 99 1011.9
20260507061525 17 45 1.6 4.8 0.94 6.65 1.50 99 1012.6
20260507060522 17 145 3.2 6.4 0.99 6.60 1.42 98 1012.5
20260507055518 17 58 0.0 3.2 0.97 6.50 1.32 98 1013.3
20260507054535 17 52 1.6 4.8 0.84 6.27 1.09 98 1013.5
20260507053531 17 111 0.0 3.2 0.66 6.07 0.89 98 1013.5
20260507052528 17 164 1.6 3.2 0.48 5.89 0.74 98 1013.6
20260507051524 17 48 0.0 3.2 0.41 5.71 0.53 98 1013.7
20260507050521 17 111 1.6 6.4 0.38 5.61 0.46 98 1013.0
20260507045518 17 179 3.2 4.8 0.41 5.54 0.36 98 1012.9
20260507044534 17 126 1.6 6.4 0.36 5.44 0.28 98 1013.1
20260507043530 17 161 0.0 3.2 0.38 5.41 0.23 98 1013.0
20260507042527 17 186 1.6 4.8 0.64 5.41 0.23 98 1013.0
20260507041523 17 164 1.6 6.4 0.71 5.31 0.13 98 1013.2
20260507040540 17 91 3.2 4.8 0.81 5.26 0.08 98 1013.3
20260507035516 17 162 1.6 6.4 0.76 5.13 5.13 98 1013.6
20260507034613 17 139 3.2 6.4 0.76 5.08 5.08 98 1013.5
20260507033529 17 184 1.6 4.8 0.74 5.03 5.03 98 1013.5
20260507032526 17 24 1.6 4.8 0.64 4.78 4.78 98 1013.7
20260507031522 17 21 3.2 6.4 0.81 4.60 4.60 98 1013.8
20260507030519 17 86 3.2 6.4 1.27 4.42 4.42 97 1013.4
20260507025535 17 87 3.2 4.8 1.30 4.37 4.37 97 1013.7
20260507024532 17 156 1.6 4.8 1.27 4.32 4.32 97 1013.8
20260507023529 17 128 4.8 9.7 2.08 4.29 4.29 97 1013.7
20260507022525 17 222 4.8 11.3 2.64 4.14 4.14 97 1014.2
20260507021522 17 78 3.2 9.7 2.74 3.78 3.78 96 1013.8
20260507020538 17 147 3.2 6.4 2.24 3.15 3.15 96 1013.2
20260507015555 18 81 4.8 9.7 2.49 3.07 3.07 95 1013.3
20260507014551 18 44 3.2 6.4 2.51 3.05 3.05 94 1013.3
20260507013548 18 40 4.8 8.0 1.70 2.21 2.21 94 1013.1
20260507012524 20 42 4.8 11.3 1.07 1.52 1.52 95 1013.6
20260507011541 20 54 1.6 4.8 0.64 1.04 1.04 95 1013.0
20260507010517 21 58 3.2 6.4 0.64 0.91 0.91 95 1013.4
20260507005533 21 85 1.6 3.2 0.58 0.58 0.58 94 1013.2
20260507004530 21 58 0.0 3.2 0.53 0.53 0.53 93 1013.4
20260507003527 21 46 1.6 4.8 0.51 0.51 0.51 92 1013.2
20260507002523 21 176 1.6 4.8 0.46 0.46 0.46 89 1013.1
20260507001521 22 34 1.6 3.2 0.41 0.41 0.41 86 1012.9
20260507000517 23 334 1.6 4.8 0.28 0.28 0.28 77 1012.2
20260506235532 25 275 1.6 6.4 0.00 0.00 0.00 66 1011.4
20260506234528 25 212 1.6 4.8 0.00 0.00 0.00 65 1010.9
20260506233525 25 217 3.2 6.4 0.00 0.00 0.00 64 1011.3
20260506232521 25 241 3.2 6.4 0.00 0.00 0.00 63 1011.6
20260506231517 25 191 3.2 8.0 0.00 0.00 0.00 63 1011.8
20260506230554 26 236 3.2 6.4 0.00 0.00 0.00 62 1012.2
20260506225550 26 208 6.4 19.3 0.00 0.00 0.00 62 1012.2
20260506224526 26 245 4.8 8.0 0.00 0.00 0.00 61 1012.1
20260506223523 26 213 8.0 20.9 0.00 0.00 0.00 61 1012.1
20260506222519 26 239 4.8 11.3 0.00 0.00 0.00 60 1011.9
20260506221515 26 203 6.4 12.9 0.00 0.00 0.00 59 1011.8
20260506220532 27 240 4.8 12.9 0.00 0.00 0.00 58 1011.7
20260506215528 27 254 6.4 16.1 0.00 0.00 0.00 57 1011.7
20260506214625 26 256 6.4 12.9 0.00 0.00 0.00 57 1011.8